Year,Month,Day,Hour,Minute,Value (Times are PST for temperature in C)
2012,04,23,00,00,12.10
2012,04,23,00,01,12.00
2012,04,23,00,02,12.00
2012,04,23,00,03,12.00
2012,04,23,00,04,11.90
2012,04,23,00,05,11.90
2012,04,23,00,06,11.80
2012,04,23,00,07,11.80
2012,04,23,00,08,11.80
2012,04,23,00,09,11.80
2012,04,23,00,10,11.80
2012,04,23,00,11,11.70
2012,04,23,00,12,11.70
2012,04,23,00,13,11.60
2012,04,23,00,14,11.60
2012,04,23,00,15,11.60
2012,04,23,00,16,11.60
2012,04,23,00,17,11.60
2012,04,23,00,18,11.60
2012,04,23,00,19,11.60
2012,04,23,00,20,11.60
2012,04,23,00,21,11.60
2012,04,23,00,22,11.60
2012,04,23,00,23,11.50
2012,04,23,00,24,11.40
2012,04,23,00,25,11.40
2012,04,23,00,26,11.40
2012,04,23,00,27,11.40
2012,04,23,00,28,11.40
2012,04,23,00,29,11.40
2012,04,23,00,30,11.40
2012,04,23,00,31,11.40
2012,04,23,00,32,11.40
2012,04,23,00,33,11.40
2012,04,23,00,34,11.40
2012,04,23,00,35,11.40
2012,04,23,00,36,11.40
2012,04,23,00,37,11.30
2012,04,23,00,38,11.30
2012,04,23,00,39,11.30
2012,04,23,00,40,11.30
2012,04,23,00,41,11.20
2012,04,23,00,42,11.20
2012,04,23,00,43,11.20
2012,04,23,00,44,11.20
2012,04,23,00,45,11.10
2012,04,23,00,46,11.10
2012,04,23,00,47,11.10
2012,04,23,00,48,11.10
2012,04,23,00,49,11.10
2012,04,23,00,50,11.10
2012,04,23,00,51,11.10
2012,04,23,00,52,11.10
2012,04,23,00,53,11.10
2012,04,23,00,54,11.10
2012,04,23,00,55,11.10
2012,04,23,00,56,11.10
2012,04,23,00,57,11.10
2012,04,23,00,58,11.00
2012,04,23,00,59,10.90
2012,04,23,01,00,10.90
2012,04,23,01,01,10.90
2012,04,23,01,02,10.90
2012,04,23,01,03,10.90
2012,04,23,01,04,10.90
2012,04,23,01,05,10.90
2012,04,23,01,06,10.90
2012,04,23,01,07,10.90
2012,04,23,01,08,10.90
2012,04,23,01,09,10.90
2012,04,23,01,10,10.90
2012,04,23,01,11,10.90
2012,04,23,01,12,10.80
2012,04,23,01,13,10.80
2012,04,23,01,14,10.80
2012,04,23,01,15,10.80
2012,04,23,01,16,10.70
2012,04,23,01,17,10.70
2012,04,23,01,18,10.70
2012,04,23,01,19,10.70
2012,04,23,01,20,10.60
2012,04,23,01,21,10.60
2012,04,23,01,22,10.60
2012,04,23,01,23,10.60
2012,04,23,01,24,10.60
2012,04,23,01,25,10.60
2012,04,23,01,26,10.60
2012,04,23,01,27,10.60
2012,04,23,01,28,10.60
2012,04,23,01,29,10.60
2012,04,23,01,30,10.60
2012,04,23,01,31,10.60
2012,04,23,01,32,10.60
2012,04,23,01,33,10.60
2012,04,23,01,34,10.60
2012,04,23,01,35,10.60
2012,04,23,01,36,10.60
2012,04,23,01,37,10.50
2012,04,23,01,38,10.50
2012,04,23,01,39,10.60
2012,04,23,01,40,10.60
2012,04,23,01,41,10.60
2012,04,23,01,42,10.60
2012,04,23,01,43,10.60
2012,04,23,01,44,10.60
2012,04,23,01,45,10.60
2012,04,23,01,46,10.60
2012,04,23,01,47,10.60
2012,04,23,01,48,10.60
2012,04,23,01,49,10.50
2012,04,23,01,50,10.40
2012,04,23,01,51,10.40
2012,04,23,01,52,10.40
2012,04,23,01,53,10.40
2012,04,23,01,54,10.40
2012,04,23,01,55,10.40
2012,04,23,01,56,10.40
2012,04,23,01,57,10.40
2012,04,23,01,58,10.30
2012,04,23,01,59,10.30
2012,04,23,02,00,10.30
2012,04,23,02,01,10.30
2012,04,23,02,02,10.20
2012,04,23,02,03,10.20
2012,04,23,02,04,10.20
2012,04,23,02,05,10.20
2012,04,23,02,06,10.10
2012,04,23,02,07,10.10
2012,04,23,02,08,10.10
2012,04,23,02,09,10.10
2012,04,23,02,10,10.10
2012,04,23,02,11,10.10
2012,04,23,02,12,10.10
2012,04,23,02,13,10.00
2012,04,23,02,14,9.90
2012,04,23,02,15,9.90
2012,04,23,02,16,9.90
2012,04,23,02,17,9.90
2012,04,23,02,18,9.90
2012,04,23,02,19,9.90
2012,04,23,02,20,9.90
2012,04,23,02,21,9.90
2012,04,23,02,22,9.90
2012,04,23,02,23,9.90
2012,04,23,02,24,9.90
2012,04,23,02,25,9.80
2012,04,23,02,26,9.80
2012,04,23,02,27,9.80
2012,04,23,02,28,9.80
2012,04,23,02,29,9.80
2012,04,23,02,30,9.80
2012,04,23,02,31,9.70
2012,04,23,02,32,9.70
2012,04,23,02,33,9.70
2012,04,23,02,34,9.70
2012,04,23,02,35,9.70
2012,04,23,02,36,9.70
2012,04,23,02,37,9.70
2012,04,23,02,38,9.70
2012,04,23,02,39,9.70
2012,04,23,02,40,9.70
2012,04,23,02,41,9.70
2012,04,23,02,42,9.70
2012,04,23,02,43,9.70
2012,04,23,02,44,9.70
2012,04,23,02,45,9.70
2012,04,23,02,46,9.70
2012,04,23,02,47,9.60
2012,04,23,02,48,9.60
2012,04,23,02,49,9.60
2012,04,23,02,50,9.60
2012,04,23,02,51,9.60
2012,04,23,02,52,9.50
2012,04,23,02,53,9.50
2012,04,23,02,54,9.50
2012,04,23,02,55,9.50
2012,04,23,02,56,9.50
2012,04,23,02,57,9.50
2012,04,23,02,58,9.40
2012,04,23,02,59,9.40
2012,04,23,03,00,9.40
2012,04,23,03,01,9.40
2012,04,23,03,02,9.40
2012,04,23,03,03,9.30
2012,04,23,03,04,9.30
2012,04,23,03,05,9.30
2012,04,23,03,06,9.30
2012,04,23,03,07,9.30
2012,04,23,03,08,9.30
2012,04,23,03,09,9.30
2012,04,23,03,10,9.30
2012,04,23,03,11,9.30
2012,04,23,03,12,9.30
2012,04,23,03,13,9.30
2012,04,23,03,14,9.30
2012,04,23,03,15,9.30
2012,04,23,03,16,9.30
2012,04,23,03,17,9.30
2012,04,23,03,18,9.30
2012,04,23,03,19,9.30
2012,04,23,03,20,9.20
2012,04,23,03,21,9.20
2012,04,23,03,22,9.20
2012,04,23,03,23,9.20
2012,04,23,03,24,9.20
2012,04,23,03,25,9.20
2012,04,23,03,26,9.20
2012,04,23,03,27,9.20
2012,04,23,03,28,9.20
2012,04,23,03,29,9.20
2012,04,23,03,30,9.20
2012,04,23,03,31,9.20
2012,04,23,03,32,9.20
2012,04,23,03,33,9.20
2012,04,23,03,34,9.20
2012,04,23,03,35,9.20
2012,04,23,03,36,9.20
2012,04,23,03,37,9.20
2012,04,23,03,38,9.20
2012,04,23,03,39,9.20
2012,04,23,03,40,9.10
2012,04,23,03,41,9.10
2012,04,23,03,42,9.10
2012,04,23,03,43,9.10
2012,04,23,03,44,9.10
2012,04,23,03,45,9.10
2012,04,23,03,46,9.10
2012,04,23,03,47,9.10
2012,04,23,03,48,9.10
2012,04,23,03,49,9.10
2012,04,23,03,50,9.10
2012,04,23,03,51,9.10
2012,04,23,03,52,9.10
2012,04,23,03,53,9.10
2012,04,23,03,54,9.10
2012,04,23,03,55,9.10
2012,04,23,03,56,9.10
2012,04,23,03,57,9.00
2012,04,23,03,58,9.00
2012,04,23,03,59,9.00
2012,04,23,04,00,9.00
2012,04,23,04,01,9.00
2012,04,23,04,02,9.00
2012,04,23,04,03,9.00
2012,04,23,04,04,8.90
2012,04,23,04,05,8.90
2012,04,23,04,06,8.90
2012,04,23,04,07,8.90
2012,04,23,04,08,8.90
2012,04,23,04,09,9.00
2012,04,23,04,10,9.00
2012,04,23,04,11,9.00
2012,04,23,04,12,9.00
2012,04,23,04,13,9.00
2012,04,23,04,14,9.00
2012,04,23,04,15,8.90
2012,04,23,04,16,8.90
2012,04,23,04,17,8.90
2012,04,23,04,18,8.90
2012,04,23,04,19,8.90
2012,04,23,04,20,8.90
2012,04,23,04,21,8.80
2012,04,23,04,22,8.80
2012,04,23,04,23,8.80
2012,04,23,04,24,8.80
2012,04,23,04,25,8.70
2012,04,23,04,26,8.70
2012,04,23,04,27,8.70
2012,04,23,04,28,8.70
2012,04,23,04,29,8.70
2012,04,23,04,30,8.70
2012,04,23,04,31,8.70
2012,04,23,04,32,8.70
2012,04,23,04,33,8.60
2012,04,23,04,34,8.60
2012,04,23,04,35,8.60
2012,04,23,04,36,8.60
2012,04,23,04,37,8.60
2012,04,23,04,38,8.60
2012,04,23,04,39,8.60
2012,04,23,04,40,8.70
2012,04,23,04,41,8.70
2012,04,23,04,42,8.70
2012,04,23,04,43,8.70
2012,04,23,04,44,8.70
2012,04,23,04,45,8.70
2012,04,23,04,46,8.70
2012,04,23,04,47,8.70
2012,04,23,04,48,8.70
2012,04,23,04,49,8.60
2012,04,23,04,50,8.60
2012,04,23,04,51,8.60
2012,04,23,04,52,8.60
2012,04,23,04,53,8.50
2012,04,23,04,54,8.50
2012,04,23,04,55,8.50
2012,04,23,04,56,8.50
2012,04,23,04,57,8.50
2012,04,23,04,58,8.50
2012,04,23,04,59,8.50
2012,04,23,05,00,8.40
2012,04,23,05,01,8.40
2012,04,23,05,02,8.40
2012,04,23,05,03,8.40
2012,04,23,05,04,8.50
2012,04,23,05,05,8.50
2012,04,23,05,06,8.50
2012,04,23,05,07,8.50
2012,04,23,05,08,8.50
2012,04,23,05,09,8.50
2012,04,23,05,10,8.50
2012,04,23,05,11,8.60
2012,04,23,05,12,8.60
2012,04,23,05,13,8.60
2012,04,23,05,14,8.70
2012,04,23,05,15,8.70
2012,04,23,05,16,8.70
2012,04,23,05,17,8.70
2012,04,23,05,18,8.70
2012,04,23,05,19,8.70
2012,04,23,05,20,8.70
2012,04,23,05,21,8.70
2012,04,23,05,22,8.70
2012,04,23,05,23,8.70
2012,04,23,05,24,8.70
2012,04,23,05,25,8.80
2012,04,23,05,26,8.80
2012,04,23,05,27,8.80
2012,04,23,05,28,8.80
2012,04,23,05,29,8.80
2012,04,23,05,30,8.80
2012,04,23,05,31,8.80
2012,04,23,05,32,8.80
2012,04,23,05,33,8.80
2012,04,23,05,34,8.80
2012,04,23,05,35,8.70
2012,04,23,05,36,8.70
2012,04,23,05,37,8.70
2012,04,23,05,38,8.70
2012,04,23,05,39,8.70
2012,04,23,05,40,8.70
2012,04,23,05,41,8.70
2012,04,23,05,42,8.70
2012,04,23,05,43,8.70
2012,04,23,05,44,8.70
2012,04,23,05,45,8.70
2012,04,23,05,46,8.70
2012,04,23,05,47,8.70
2012,04,23,05,48,8.70
2012,04,23,05,49,8.70
2012,04,23,05,50,8.70
2012,04,23,05,51,8.70
2012,04,23,05,52,8.70
2012,04,23,05,53,8.70
2012,04,23,05,54,8.70
2012,04,23,05,55,8.70
2012,04,23,05,56,8.70
2012,04,23,05,57,8.70
2012,04,23,05,58,8.70
2012,04,23,05,59,8.70
2012,04,23,06,00,8.70
2012,04,23,06,01,8.70
2012,04,23,06,02,8.70
2012,04,23,06,03,8.70
2012,04,23,06,04,8.70
2012,04,23,06,05,8.70
2012,04,23,06,06,8.70
2012,04,23,06,07,8.70
2012,04,23,06,08,8.70
2012,04,23,06,09,8.70
2012,04,23,06,10,8.70
2012,04,23,06,11,8.70
2012,04,23,06,12,8.70
2012,04,23,06,13,8.70
2012,04,23,06,14,8.70
2012,04,23,06,15,8.70
2012,04,23,06,16,8.70
2012,04,23,06,17,8.70
2012,04,23,06,18,8.70
2012,04,23,06,19,8.70
2012,04,23,06,20,8.70
2012,04,23,06,21,8.70
2012,04,23,06,22,8.70
2012,04,23,06,23,8.70
2012,04,23,06,24,8.70
2012,04,23,06,25,8.70
2012,04,23,06,26,8.70
2012,04,23,06,27,8.70
2012,04,23,06,28,8.70
2012,04,23,06,29,8.60
2012,04,23,06,30,8.60
2012,04,23,06,31,8.60
2012,04,23,06,32,8.60
2012,04,23,06,33,8.60
2012,04,23,06,34,8.60
2012,04,23,06,35,8.60
2012,04,23,06,36,8.60
2012,04,23,06,37,8.60
2012,04,23,06,38,8.60
2012,04,23,06,39,8.70
2012,04,23,06,40,8.70
2012,04,23,06,41,8.70
2012,04,23,06,42,8.70
2012,04,23,06,43,8.70
2012,04,23,06,44,8.70
2012,04,23,06,45,8.70
2012,04,23,06,46,8.70
2012,04,23,06,47,8.70
2012,04,23,06,48,8.70
2012,04,23,06,49,8.80
2012,04,23,06,50,8.80
2012,04,23,06,51,8.80
2012,04,23,06,52,8.80
2012,04,23,06,53,8.80
2012,04,23,06,54,8.90
2012,04,23,06,55,8.90
2012,04,23,06,56,8.90
2012,04,23,06,57,8.90
2012,04,23,06,58,9.00
2012,04,23,06,59,9.00
2012,04,23,07,00,9.10
2012,04,23,07,01,9.10
2012,04,23,07,02,9.20
2012,04,23,07,03,9.20
2012,04,23,07,04,9.20
2012,04,23,07,05,9.20
2012,04,23,07,06,9.20
2012,04,23,07,07,9.20
2012,04,23,07,08,9.20
2012,04,23,07,09,9.20
2012,04,23,07,10,9.20
2012,04,23,07,11,9.30
2012,04,23,07,12,9.30
2012,04,23,07,13,9.30
2012,04,23,07,14,9.30
2012,04,23,07,15,9.30
2012,04,23,07,16,9.40
2012,04,23,07,17,9.40
2012,04,23,07,18,9.40
2012,04,23,07,19,9.40
2012,04,23,07,20,9.40
2012,04,23,07,21,9.40
2012,04,23,07,22,9.40
2012,04,23,07,23,9.40
2012,04,23,07,24,9.40
2012,04,23,07,25,9.50
2012,04,23,07,26,9.50
2012,04,23,07,27,9.50
2012,04,23,07,28,9.50
2012,04,23,07,29,9.60
2012,04,23,07,30,9.60
2012,04,23,07,31,9.70
2012,04,23,07,32,9.70
2012,04,23,07,33,9.80
2012,04,23,07,34,9.80
2012,04,23,07,35,9.80
2012,04,23,07,36,9.90
2012,04,23,07,37,9.90
2012,04,23,07,38,10.00
2012,04,23,07,39,10.10
2012,04,23,07,40,10.20
2012,04,23,07,41,10.20
2012,04,23,07,42,10.30
2012,04,23,07,43,10.40
2012,04,23,07,44,10.40
2012,04,23,07,45,10.60
2012,04,23,07,46,10.60
2012,04,23,07,47,10.70
2012,04,23,07,48,10.80
2012,04,23,07,49,10.80
2012,04,23,07,50,10.90
2012,04,23,07,51,10.90
2012,04,23,07,52,10.90
2012,04,23,07,53,10.90
2012,04,23,07,54,10.90
2012,04,23,07,55,10.90
2012,04,23,07,56,11.10
2012,04,23,07,57,11.10
2012,04,23,07,58,11.10
2012,04,23,07,59,11.10
2012,04,23,08,00,11.10
2012,04,23,08,01,11.10
2012,04,23,08,02,11.10
2012,04,23,08,03,11.10
2012,04,23,08,04,11.10
2012,04,23,08,05,11.10
2012,04,23,08,06,11.10
2012,04,23,08,07,11.10
2012,04,23,08,08,11.10
2012,04,23,08,09,11.10
2012,04,23,08,10,11.20
2012,04,23,08,11,11.20
2012,04,23,08,12,11.30
2012,04,23,08,13,11.30
2012,04,23,08,14,11.40
2012,04,23,08,15,11.40
2012,04,23,08,16,11.50
2012,04,23,08,17,11.60
2012,04,23,08,18,11.60
2012,04,23,08,19,11.60
2012,04,23,08,20,11.70
2012,04,23,08,21,11.70
2012,04,23,08,22,11.70
2012,04,23,08,23,11.80
2012,04,23,08,24,11.80
2012,04,23,08,25,11.80
2012,04,23,08,26,11.80
2012,04,23,08,27,11.90
2012,04,23,08,28,11.90
2012,04,23,08,29,12.00
2012,04,23,08,30,12.00
2012,04,23,08,31,12.00
2012,04,23,08,32,12.00
2012,04,23,08,33,12.00
2012,04,23,08,34,12.10
2012,04,23,08,35,12.10
2012,04,23,08,36,12.10
2012,04,23,08,37,12.20
2012,04,23,08,38,12.20
2012,04,23,08,39,12.30
2012,04,23,08,40,12.30
2012,04,23,08,41,12.30
2012,04,23,08,42,12.30
2012,04,23,08,43,12.30
2012,04,23,08,44,12.30
2012,04,23,08,45,12.30
2012,04,23,08,46,12.30
2012,04,23,08,47,12.30
2012,04,23,08,48,12.30
2012,04,23,08,49,12.30
2012,04,23,08,50,12.30
2012,04,23,08,51,12.30
2012,04,23,08,52,12.30
2012,04,23,08,53,12.30
2012,04,23,08,54,12.30
2012,04,23,08,55,12.30
2012,04,23,08,56,12.40
2012,04,23,08,57,12.40
2012,04,23,08,58,12.50
2012,04,23,08,59,12.50
2012,04,23,09,00,12.50
2012,04,23,09,01,12.60
2012,04,23,09,02,12.60
2012,04,23,09,03,12.70
2012,04,23,09,04,12.70
2012,04,23,09,05,12.80
2012,04,23,09,06,12.80
2012,04,23,09,07,12.80
2012,04,23,09,08,12.90
2012,04,23,09,09,12.90
2012,04,23,09,10,13.00
2012,04,23,09,11,13.10
2012,04,23,09,12,13.10
2012,04,23,09,13,13.00
2012,04,23,09,14,13.00
2012,04,23,09,15,13.00
2012,04,23,09,16,13.00
2012,04,23,09,17,13.10
2012,04,23,09,18,13.10
2012,04,23,09,19,13.30
2012,04,23,09,20,13.30
2012,04,23,09,21,13.30
2012,04,23,09,22,13.30
2012,04,23,09,23,13.30
2012,04,23,09,24,13.30
2012,04,23,09,25,13.30
2012,04,23,09,26,13.30
2012,04,23,09,27,13.30
2012,04,23,09,28,13.30
2012,04,23,09,29,13.40
2012,04,23,09,30,13.40
2012,04,23,09,31,13.50
2012,04,23,09,32,13.50
2012,04,23,09,33,13.60
2012,04,23,09,34,13.70
2012,04,23,09,35,13.70
2012,04,23,09,36,13.70
2012,04,23,09,37,13.80
2012,04,23,09,38,13.80
2012,04,23,09,39,13.80
2012,04,23,09,40,13.70
2012,04,23,09,41,13.70
2012,04,23,09,42,13.70
2012,04,23,09,43,13.70
2012,04,23,09,44,13.70
2012,04,23,09,45,13.70
2012,04,23,09,46,13.80
2012,04,23,09,47,13.80
2012,04,23,09,48,13.90
2012,04,23,09,49,13.90
2012,04,23,09,50,14.00
2012,04,23,09,51,14.00
2012,04,23,09,52,14.10
2012,04,23,09,53,14.10
2012,04,23,09,54,14.10
2012,04,23,09,55,14.20
2012,04,23,09,56,14.20
2012,04,23,09,57,14.30
2012,04,23,09,58,14.40
2012,04,23,09,59,14.50
2012,04,23,10,00,14.50
2012,04,23,10,01,14.50
2012,04,23,10,02,14.50
2012,04,23,10,03,14.50
2012,04,23,10,04,14.50
2012,04,23,10,05,14.50
2012,04,23,10,06,14.50
2012,04,23,10,07,14.40
2012,04,23,10,08,14.40
2012,04,23,10,09,14.40
2012,04,23,10,10,14.30
2012,04,23,10,11,14.20
2012,04,23,10,12,14.20
2012,04,23,10,13,14.20
2012,04,23,10,14,14.20
2012,04,23,10,15,14.20
2012,04,23,10,16,14.20
2012,04,23,10,17,14.20
2012,04,23,10,18,14.30
2012,04,23,10,19,14.30
2012,04,23,10,20,14.20
2012,04,23,10,21,14.20
2012,04,23,10,22,14.10
2012,04,23,10,23,14.00
2012,04,23,10,24,13.90
2012,04,23,10,25,13.90
2012,04,23,10,26,13.80
2012,04,23,10,27,13.80
2012,04,23,10,28,13.80
2012,04,23,10,29,13.80
2012,04,23,10,30,13.80
2012,04,23,10,31,13.90
2012,04,23,10,32,13.90
2012,04,23,10,33,13.90
2012,04,23,10,34,14.00
2012,04,23,10,35,14.00
2012,04,23,10,36,14.00
2012,04,23,10,37,14.00
2012,04,23,10,38,14.10
2012,04,23,10,39,14.10
2012,04,23,10,40,14.10
2012,04,23,10,41,14.10
2012,04,23,10,42,14.10
2012,04,23,10,43,14.00
2012,04,23,10,44,14.00
2012,04,23,10,45,14.00
2012,04,23,10,46,14.00
2012,04,23,10,47,13.90
2012,04,23,10,48,13.90
2012,04,23,10,49,13.80
2012,04,23,10,50,13.70
2012,04,23,10,51,13.70
2012,04,23,10,52,13.70
2012,04,23,10,53,13.70
2012,04,23,10,54,13.70
2012,04,23,10,55,13.60
2012,04,23,10,56,13.60
2012,04,23,10,57,13.70
2012,04,23,10,58,13.70
2012,04,23,10,59,13.80
2012,04,23,11,00,13.90
2012,04,23,11,01,13.90
2012,04,23,11,02,13.90
2012,04,23,11,03,13.90
2012,04,23,11,04,13.90
2012,04,23,11,05,13.90
2012,04,23,11,06,13.80
2012,04,23,11,07,13.80
2012,04,23,11,08,13.70
2012,04,23,11,09,13.60
2012,04,23,11,10,13.60
2012,04,23,11,11,13.50
2012,04,23,11,12,13.50
2012,04,23,11,13,13.60
2012,04,23,11,14,13.60
2012,04,23,11,15,13.70
2012,04,23,11,16,13.70
2012,04,23,11,17,13.80
2012,04,23,11,18,13.80
2012,04,23,11,19,13.70
2012,04,23,11,20,13.70
2012,04,23,11,21,13.70
2012,04,23,11,22,13.70
2012,04,23,11,23,13.70
2012,04,23,11,24,13.70
2012,04,23,11,25,13.70
2012,04,23,11,26,13.70
2012,04,23,11,27,13.70
2012,04,23,11,28,13.70
2012,04,23,11,29,13.80
2012,04,23,11,30,13.80
2012,04,23,11,31,13.80
2012,04,23,11,32,13.90
2012,04,23,11,33,13.90
2012,04,23,11,34,13.90
2012,04,23,11,35,13.90
2012,04,23,11,36,13.90
2012,04,23,11,37,13.90
2012,04,23,11,38,13.90
2012,04,23,11,39,13.90
2012,04,23,11,40,13.90
2012,04,23,11,41,14.00
2012,04,23,11,42,14.00
2012,04,23,11,43,14.10
2012,04,23,11,44,14.20
2012,04,23,11,45,14.30
2012,04,23,11,46,14.50
2012,04,23,11,47,14.60
2012,04,23,11,48,14.70
2012,04,23,11,49,14.80
2012,04,23,11,50,14.90
2012,04,23,11,51,15.00
2012,04,23,11,52,15.00
2012,04,23,11,53,15.00
2012,04,23,11,54,15.10
2012,04,23,11,55,15.10
2012,04,23,11,56,15.20
2012,04,23,11,57,15.30
2012,04,23,11,58,15.40
2012,04,23,11,59,15.40
2012,04,23,12,00,15.40
2012,04,23,12,01,15.50
2012,04,23,12,02,15.50
2012,04,23,12,03,15.60
2012,04,23,12,04,15.70
2012,04,23,12,05,15.70
2012,04,23,12,06,15.80
2012,04,23,12,07,15.80
2012,04,23,12,08,15.90
2012,04,23,12,09,15.90
2012,04,23,12,10,15.80
2012,04,23,12,11,15.90
2012,04,23,12,12,15.90
2012,04,23,12,13,15.80
2012,04,23,12,14,15.80
2012,04,23,12,15,15.80
2012,04,23,12,16,15.80
2012,04,23,12,17,15.80
2012,04,23,12,18,15.80
2012,04,23,12,19,15.80
2012,04,23,12,20,15.70
2012,04,23,12,21,15.70
2012,04,23,12,22,15.70
2012,04,23,12,23,15.70
2012,04,23,12,24,15.60
2012,04,23,12,25,15.60
2012,04,23,12,26,15.70
2012,04,23,12,27,15.80
2012,04,23,12,28,16.00
2012,04,23,12,29,16.10
2012,04,23,12,30,16.10
2012,04,23,12,31,16.10
2012,04,23,12,32,16.10
2012,04,23,12,33,16.10
2012,04,23,12,34,16.10
2012,04,23,12,35,16.20
2012,04,23,12,36,16.20
2012,04,23,12,37,16.20
2012,04,23,12,38,16.20
2012,04,23,12,39,16.30
2012,04,23,12,40,16.30
2012,04,23,12,41,16.40
2012,04,23,12,42,16.40
2012,04,23,12,43,16.50
2012,04,23,12,44,16.60
2012,04,23,12,45,16.70
2012,04,23,12,46,16.70
2012,04,23,12,47,16.70
2012,04,23,12,48,16.70
2012,04,23,12,49,16.70
2012,04,23,12,50,16.70
2012,04,23,12,51,16.70
2012,04,23,12,52,16.70
2012,04,23,12,53,16.60
2012,04,23,12,54,16.60
2012,04,23,12,55,16.40
2012,04,23,12,56,16.40
2012,04,23,12,57,16.40
2012,04,23,12,58,16.40
2012,04,23,12,59,16.40
2012,04,23,13,00,16.40
2012,04,23,13,01,16.40
2012,04,23,13,02,16.40
2012,04,23,13,03,16.40
2012,04,23,13,04,16.60
2012,04,23,13,05,16.60
2012,04,23,13,06,16.60
2012,04,23,13,07,16.70
2012,04,23,13,08,16.70
2012,04,23,13,09,16.70
2012,04,23,13,10,16.70
2012,04,23,13,11,16.70
2012,04,23,13,12,16.80
2012,04,23,13,13,16.80
2012,04,23,13,14,16.90
2012,04,23,13,15,17.00
2012,04,23,13,16,17.10
2012,04,23,13,17,17.20
2012,04,23,13,18,17.30
2012,04,23,13,19,17.40
2012,04,23,13,20,17.40
2012,04,23,13,21,17.50
2012,04,23,13,22,17.60
2012,04,23,13,23,17.60
2012,04,23,13,24,17.70
2012,04,23,13,25,17.70
2012,04,23,13,26,17.80
2012,04,23,13,27,17.80
2012,04,23,13,28,17.80
2012,04,23,13,29,17.80
2012,04,23,13,30,17.70
2012,04,23,13,31,17.70
2012,04,23,13,32,17.80
2012,04,23,13,33,17.80
2012,04,23,13,34,17.90
2012,04,23,13,35,17.90
2012,04,23,13,36,17.90
2012,04,23,13,37,18.00
2012,04,23,13,38,18.10
2012,04,23,13,39,18.20
2012,04,23,13,40,18.20
2012,04,23,13,41,18.20
2012,04,23,13,42,18.20
2012,04,23,13,43,18.20
2012,04,23,13,44,18.20
2012,04,23,13,45,18.30
2012,04,23,13,46,18.40
2012,04,23,13,47,18.40
2012,04,23,13,48,18.50
2012,04,23,13,49,18.50
2012,04,23,13,50,18.50
2012,04,23,13,51,18.60
2012,04,23,13,52,18.60
2012,04,23,13,53,18.70
2012,04,23,13,54,18.90
2012,04,23,13,55,19.00
2012,04,23,13,56,19.10
2012,04,23,13,57,19.20
2012,04,23,13,58,19.30
2012,04,23,13,59,19.40
2012,04,23,14,00,19.40
2012,04,23,14,01,19.40
2012,04,23,14,02,19.40
2012,04,23,14,03,19.40
2012,04,23,14,04,19.40
2012,04,23,14,05,19.40
2012,04,23,14,06,19.40
2012,04,23,14,07,19.50
2012,04,23,14,08,19.50
2012,04,23,14,09,19.60
2012,04,23,14,10,19.60
2012,04,23,14,11,19.70
2012,04,23,14,12,19.80
2012,04,23,14,13,19.90
2012,04,23,14,14,19.90
2012,04,23,14,15,20.00
2012,04,23,14,16,20.10
2012,04,23,14,17,20.10
2012,04,23,14,18,20.10
2012,04,23,14,19,20.10
2012,04,23,14,20,20.00
2012,04,23,14,21,19.80
2012,04,23,14,22,19.70
2012,04,23,14,23,19.60
2012,04,23,14,24,19.60
2012,04,23,14,25,19.70
2012,04,23,14,26,19.80
2012,04,23,14,27,19.90
2012,04,23,14,28,19.90
2012,04,23,14,29,20.10
2012,04,23,14,30,20.10
2012,04,23,14,31,20.00
2012,04,23,14,32,19.90
2012,04,23,14,33,19.80
2012,04,23,14,34,19.60
2012,04,23,14,35,19.40
2012,04,23,14,36,19.10
2012,04,23,14,37,19.00
2012,04,23,14,38,18.90
2012,04,23,14,39,18.80
2012,04,23,14,40,18.70
2012,04,23,14,41,18.60
2012,04,23,14,42,18.50
2012,04,23,14,43,18.40
2012,04,23,14,44,18.40
2012,04,23,14,45,18.30
2012,04,23,14,46,18.20
2012,04,23,14,47,18.20
2012,04,23,14,48,18.20
2012,04,23,14,49,18.30
2012,04,23,14,50,18.30
2012,04,23,14,51,18.30
2012,04,23,14,52,18.30
2012,04,23,14,53,18.30
2012,04,23,14,54,18.30
2012,04,23,14,55,18.20
2012,04,23,14,56,18.10
2012,04,23,14,57,18.10
2012,04,23,14,58,18.00
2012,04,23,14,59,17.90
2012,04,23,15,00,17.90
2012,04,23,15,01,17.90
2012,04,23,15,02,18.00
2012,04,23,15,03,18.00
2012,04,23,15,04,17.90
2012,04,23,15,05,17.90
2012,04,23,15,06,17.90
2012,04,23,15,07,17.90
2012,04,23,15,08,17.90
2012,04,23,15,09,17.90
2012,04,23,15,10,17.90
2012,04,23,15,11,18.00
2012,04,23,15,12,18.10
2012,04,23,15,13,18.00
2012,04,23,15,14,17.90
2012,04,23,15,15,17.90
2012,04,23,15,16,17.90
2012,04,23,15,17,17.80
2012,04,23,15,18,17.70
2012,04,23,15,19,17.70
2012,04,23,15,20,17.80
2012,04,23,15,21,17.90
2012,04,23,15,22,17.80
2012,04,23,15,23,17.70
2012,04,23,15,24,17.60
2012,04,23,15,25,17.50
2012,04,23,15,26,17.40
2012,04,23,15,27,17.30
2012,04,23,15,28,17.20
2012,04,23,15,29,17.10
2012,04,23,15,30,17.00
2012,04,23,15,31,17.00
2012,04,23,15,32,16.90
2012,04,23,15,33,17.00
2012,04,23,15,34,17.00
2012,04,23,15,35,16.90
2012,04,23,15,36,16.80
2012,04,23,15,37,16.80
2012,04,23,15,38,16.90
2012,04,23,15,39,16.90
2012,04,23,15,40,16.80
2012,04,23,15,41,16.80
2012,04,23,15,42,16.80
2012,04,23,15,43,16.80
2012,04,23,15,44,16.80
2012,04,23,15,45,16.90
2012,04,23,15,46,16.90
2012,04,23,15,47,16.80
2012,04,23,15,48,16.80
2012,04,23,15,49,16.80
2012,04,23,15,50,16.80
2012,04,23,15,51,16.80
2012,04,23,15,52,16.80
2012,04,23,15,53,16.70
2012,04,23,15,54,16.60
2012,04,23,15,55,16.50
2012,04,23,15,56,16.40
2012,04,23,15,57,16.30
2012,04,23,15,58,16.20
2012,04,23,15,59,16.20
2012,04,23,16,00,16.20
2012,04,23,16,01,16.20
2012,04,23,16,02,16.20
2012,04,23,16,03,16.20
2012,04,23,16,04,16.20
2012,04,23,16,05,16.20
2012,04,23,16,06,16.10
2012,04,23,16,07,16.10
2012,04,23,16,08,16.10
2012,04,23,16,09,16.20
2012,04,23,16,10,16.20
2012,04,23,16,11,16.30
2012,04,23,16,12,16.40
2012,04,23,16,13,16.50
2012,04,23,16,14,16.60
2012,04,23,16,15,16.70
2012,04,23,16,16,16.80
2012,04,23,16,17,16.70
2012,04,23,16,18,16.70
2012,04,23,16,19,16.80
2012,04,23,16,20,16.80
2012,04,23,16,21,16.70
2012,04,23,16,22,16.70
2012,04,23,16,23,16.70
2012,04,23,16,24,16.70
2012,04,23,16,25,16.70
2012,04,23,16,26,16.90
2012,04,23,16,27,16.90
2012,04,23,16,28,17.00
2012,04,23,16,29,17.00
2012,04,23,16,30,17.10
2012,04,23,16,31,17.20
2012,04,23,16,32,17.30
2012,04,23,16,33,17.30
2012,04,23,16,34,17.30
2012,04,23,16,35,17.40
2012,04,23,16,36,17.40
2012,04,23,16,37,17.50
2012,04,23,16,38,17.60
2012,04,23,16,39,17.60
2012,04,23,16,40,17.70
2012,04,23,16,41,17.70
2012,04,23,16,42,17.80
2012,04,23,16,43,17.80
2012,04,23,16,44,17.90
2012,04,23,16,45,17.90
2012,04,23,16,46,18.10
2012,04,23,16,47,18.10
2012,04,23,16,48,18.20
2012,04,23,16,49,18.20
2012,04,23,16,50,18.30
2012,04,23,16,51,18.40
2012,04,23,16,52,18.40
2012,04,23,16,53,18.40
2012,04,23,16,54,18.50
2012,04,23,16,55,18.60
2012,04,23,16,56,18.60
2012,04,23,16,57,18.60
2012,04,23,16,58,18.60
2012,04,23,16,59,18.70
2012,04,23,17,00,18.60
2012,04,23,17,01,18.50
2012,04,23,17,02,18.50
2012,04,23,17,03,18.40
2012,04,23,17,04,18.30
2012,04,23,17,05,18.20
2012,04,23,17,06,18.30
2012,04,23,17,07,18.30
2012,04,23,17,08,18.40
2012,04,23,17,09,18.40
2012,04,23,17,10,18.50
2012,04,23,17,11,18.50
2012,04,23,17,12,18.60
2012,04,23,17,13,18.60
2012,04,23,17,14,18.60
2012,04,23,17,15,18.60
2012,04,23,17,16,18.60
2012,04,23,17,17,18.50
2012,04,23,17,18,18.40
2012,04,23,17,19,18.30
2012,04,23,17,20,18.10
2012,04,23,17,21,17.90
2012,04,23,17,22,17.80
2012,04,23,17,23,17.70
2012,04,23,17,24,17.60
2012,04,23,17,25,17.50
2012,04,23,17,26,17.50
2012,04,23,17,27,17.50
2012,04,23,17,28,17.50
2012,04,23,17,29,17.50
2012,04,23,17,30,17.50
2012,04,23,17,31,17.40
2012,04,23,17,32,17.40
2012,04,23,17,33,17.40